sat.trackr.live / text

‹ back to catalog

STARLINK-4389

NORAD 53475 · 2022-099L

PAYLOAD ACTIVE UNKNOWN

§ Identity

Operator
Country
US
Launch date
2022-08-12
Launch site
AFWTR
Launch vehicle
Mass (kg)
RCS (m²)

Purposes: comms

External: N2YO · Heavens-Above · Gunter

§ Orbital elements

Epoch: 2026-05-25T06:00:02.000160Z

Period
93.32 min
Inclination
97.6032°
Eccentricity
0.0001120
Mean motion
15.43032819 rev/d
Perigee alt
436.4 km
Apogee alt
437.9 km
Semi-major
6,815.3 km
B*
4.4686e-3
RAAN
267.3354°
Arg perigee
65.6191°
Mean anomaly
80.4850°
Rev number
578

§ Raw data

STARLINK-43891 53475U 22099L   26145.25002315  .00202029  00000+0  44686-2 0  99962 53475  97.6032 267.3354 0001120  65.6191  80.4850 15.43032819  5786

JSON: /api/v1/satellites/53475 · /tle

For live sub-satellite position, see the globe view (requires WebGL).

§ Visibility from observer

Set your observer location to see the next 7 days of passes ≥ 10°. The values pass through the URL so the page stays shareable.

No JS? Fill the form by hand. The geolocation button needs JavaScript.